Time,TemperatureF,DewpointF,PressureIn,WindDirection,WindDirectionDegrees,WindSpeedMPH,WindSpeedGustMPH,Humidity,HourlyPrecipIn,Conditions,Clouds,dailyrainin,SoftwareType,DateUTC
2013-12-04 00:11:00,5.9,1.0,30.38,NNE,29,3.0,7.0,80,0.00,,,0.00,weatherlink.com 1.10,2013-12-04 07:11:00,
2013-12-04 00:26:00,5.8,1.0,30.38,NNW,348,1.0,4.0,80,0.00,,,0.00,weatherlink.com 1.10,2013-12-04 07:26:00,
2013-12-04 00:41:00,5.8,1.0,30.39,NW,307,1.0,3.0,81,0.00,,,0.00,weatherlink.com 1.10,2013-12-04 07:41:00,
2013-12-04 00:56:00,5.7,2.0,30.39,NW,323,5.0,6.0,83,0.00,,,0.00,weatherlink.com 1.10,2013-12-04 07:56:00,
2013-12-04 01:11:00,5.9,2.0,30.39,NNW,327,5.0,7.0,84,0.00,,,0.00,weatherlink.com 1.10,2013-12-04 08:11:00,
2013-12-04 01:41:00,5.6,2.0,30.39,NNW,345,5.0,10.0,84,0.00,,,0.00,weatherlink.com 1.10,2013-12-04 08:41:00,
2013-12-04 01:56:00,5.4,2.0,30.40,NNW,339,3.0,11.0,84,0.00,,,0.00,weatherlink.com 1.10,2013-12-04 08:56:00,
2013-12-04 02:11:00,5.4,1.0,30.40,North,350,3.0,8.0,83,0.00,,,0.00,weatherlink.com 1.10,2013-12-04 09:11:00,
2013-12-04 02:27:00,5.2,1.0,30.40,NNW,339,4.0,7.0,83,0.00,,,0.00,weatherlink.com 1.10,2013-12-04 09:27:00,
2013-12-04 02:42:00,5.1,1.0,30.39,NNE,12,3.0,8.0,82,0.00,,,0.00,weatherlink.com 1.10,2013-12-04 09:42:00,
2013-12-04 02:57:00,4.9,1.0,30.40,North,350,2.0,11.0,84,0.00,,,0.00,weatherlink.com 1.10,2013-12-04 09:57:00,
2013-12-04 03:12:00,5.0,1.0,30.40,North,353,11.0,15.0,83,0.00,,,0.00,weatherlink.com 1.10,2013-12-04 10:12:00,
2013-12-04 03:27:00,5.0,1.0,30.39,NNW,343,5.0,15.0,82,0.00,,,0.00,weatherlink.com 1.10,2013-12-04 10:27:00,
2013-12-04 03:42:00,4.8,1.0,30.39,North,349,4.0,8.0,82,0.00,,,0.00,weatherlink.com 1.10,2013-12-04 10:42:00,
2013-12-04 03:57:00,4.7,1.0,30.39,NNW,346,2.0,6.0,83,0.00,,,0.00,weatherlink.com 1.10,2013-12-04 10:57:00,
2013-12-04 04:12:00,4.8,0.0,30.39,North,354,2.0,9.0,81,0.00,,,0.00,weatherlink.com 1.10,2013-12-04 11:12:00,
2013-12-04 04:27:00,4.7,0.0,30.39,NNE,17,6.0,7.0,82,0.00,,,0.00,weatherlink.com 1.10,2013-12-04 11:27:00,
2013-12-04 04:42:00,4.7,1.0,30.39,NNW,335,3.0,8.0,84,0.00,,,0.00,weatherlink.com 1.10,2013-12-04 11:42:00,
2013-12-04 04:57:00,4.7,1.0,30.39,NNW,340,3.0,4.0,83,0.00,,,0.00,weatherlink.com 1.10,2013-12-04 11:57:00,
2013-12-04 05:12:00,4.8,1.0,30.39,NNW,330,8.0,10.0,82,0.00,,,0.00,weatherlink.com 1.10,2013-12-04 12:12:00,
2013-12-04 05:27:00,4.8,0.0,30.40,North,356,5.0,11.0,81,0.00,,,0.00,weatherlink.com 1.10,2013-12-04 12:27:00,
2013-12-04 05:42:00,4.7,0.0,30.40,North,2,3.0,7.0,81,0.00,,,0.00,weatherlink.com 1.10,2013-12-04 12:42:00,
2013-12-04 05:58:00,4.6,0.0,30.41,NE,36,3.0,6.0,82,0.00,,,0.00,weatherlink.com 1.10,2013-12-04 12:58:00,
2013-12-04 06:13:00,4.4,0.0,30.41,NNE,22,3.0,6.0,83,0.00,,,0.00,weatherlink.com 1.10,2013-12-04 13:13:00,
2013-12-04 06:28:00,4.4,1.0,30.42,NW,324,2.0,6.0,84,0.00,,,0.00,weatherlink.com 1.10,2013-12-04 13:28:00,
2013-12-04 06:43:00,4.3,0.0,30.43,NNW,333,2.0,9.0,82,0.00,,,0.00,weatherlink.com 1.10,2013-12-04 13:43:00,
2013-12-04 06:58:00,4.1,0.0,30.43,NNW,346,3.0,9.0,82,0.00,,,0.00,weatherlink.com 1.10,2013-12-04 13:58:00,
2013-12-04 07:13:00,4.2,0.0,30.43,North,350,2.0,6.0,82,0.00,,,0.00,weatherlink.com 1.10,2013-12-04 14:13:00,
2013-12-04 07:28:00,4.2,0.0,30.44,North,352,3.0,8.0,81,0.00,,,0.00,weatherlink.com 1.10,2013-12-04 14:28:00,
2013-12-04 07:43:00,4.1,0.0,30.44,North,354,3.0,9.0,82,0.00,,,0.00,weatherlink.com 1.10,2013-12-04 14:43:00,
2013-12-04 07:58:00,4.2,0.0,30.45,North,5,3.0,6.0,81,0.00,,,0.00,weatherlink.com 1.10,2013-12-04 14:58:00,
2013-12-04 08:13:00,4.2,-1.0,30.45,NNW,334,3.0,6.0,80,0.00,,,0.00,weatherlink.com 1.10,2013-12-04 15:13:00,
2013-12-04 08:28:00,4.2,-1.0,30.46,NNE,27,1.0,9.0,79,0.00,,,0.00,weatherlink.com 1.10,2013-12-04 15:28:00,
2013-12-04 08:43:00,4.1,-1.0,30.46,NNW,340,5.0,8.0,79,0.00,,,0.00,weatherlink.com 1.10,2013-12-04 15:43:00,
2013-12-04 08:58:00,4.3,-1.0,30.45,NNW,340,4.0,7.0,79,0.00,,,0.00,weatherlink.com 1.10,2013-12-04 15:58:00,
2013-12-04 09:14:00,4.4,-1.0,30.46,NNE,25,3.0,6.0,80,0.00,,,0.00,weatherlink.com 1.10,2013-12-04 16:14:00,
2013-12-04 09:29:00,4.7,-1.0,30.46,NNE,24,4.0,4.0,79,0.00,,,0.00,weatherlink.com 1.10,2013-12-04 16:29:00,
2013-12-04 09:44:00,4.6,-1.0,30.47,NNW,347,3.0,10.0,78,0.00,,,0.00,weatherlink.com 1.10,2013-12-04 16:44:00,
2013-12-04 09:59:00,4.7,-1.0,30.47,NNW,334,3.0,6.0,78,0.00,,,0.00,weatherlink.com 1.10,2013-12-04 16:59:00,
2013-12-04 10:14:00,5.0,-1.0,30.47,NNE,27,3.0,6.0,77,0.00,,,0.00,weatherlink.com 1.10,2013-12-04 17:14:00,
2013-12-04 10:29:00,5.0,-1.0,30.47,NNW,338,2.0,6.0,76,0.00,,,0.00,weatherlink.com 1.10,2013-12-04 17:29:00,
2013-12-04 10:44:00,5.2,-1.0,30.47,NNE,32,2.0,4.0,77,0.00,,,0.00,weatherlink.com 1.10,2013-12-04 17:44:00,
2013-12-04 10:59:00,5.8,0.0,30.46,NNE,26,5.0,6.0,76,0.00,,,0.00,weatherlink.com 1.10,2013-12-04 17:59:00,
2013-12-04 11:14:00,6.4,0.0,30.46,NNE,13,14.0,17.0,74,0.00,,,0.00,weatherlink.com 1.10,2013-12-04 18:14:00,
2013-12-04 11:29:00,6.8,0.0,30.45,NNW,346,8.0,13.0,73,0.00,,,0.00,weatherlink.com 1.10,2013-12-04 18:29:00,
2013-12-04 11:44:00,6.6,0.0,30.45,NNW,342,9.0,15.0,73,0.00,,,0.00,weatherlink.com 1.10,2013-12-04 18:44:00,
2013-12-04 11:59:00,6.8,0.0,30.44,NNW,340,6.0,17.0,73,0.00,,,0.00,weatherlink.com 1.10,2013-12-04 18:59:00,
2013-12-04 12:14:00,6.8,-1.0,30.44,NNE,14,9.0,18.0,70,0.00,,,0.00,weatherlink.com 1.10,2013-12-04 19:14:00,
2013-12-04 12:30:00,6.9,-1.0,30.43,North,356,12.0,19.0,70,0.00,,,0.00,weatherlink.com 1.10,2013-12-04 19:30:00,
2013-12-04 13:00:00,7.0,-1.0,30.43,NNE,25,5.0,12.0,70,0.00,,,0.00,weatherlink.com 1.10,2013-12-04 20:00:00,
2013-12-04 13:14:00,7.1,-1.0,30.43,NE,41,2.0,7.0,69,0.00,,,0.00,weatherlink.com 1.10,2013-12-04 20:14:00,
2013-12-04 13:30:00,8.1,0.0,30.43,NNE,18,5.0,6.0,69,0.00,,,0.00,weatherlink.com 1.10,2013-12-04 20:30:00,
2013-12-04 13:45:00,7.3,0.0,30.44,NNE,30,6.0,6.0,71,0.00,,,0.00,weatherlink.com 1.10,2013-12-04 20:45:00,
2013-12-04 14:00:00,6.6,0.0,30.44,NNE,18,5.0,8.0,73,0.00,,,0.00,weatherlink.com 1.10,2013-12-04 21:00:00,
2013-12-04 14:15:00,6.7,0.0,30.43,NNE,32,2.0,4.0,75,0.00,,,0.00,weatherlink.com 1.10,2013-12-04 21:15:00,
2013-12-04 14:30:00,6.7,1.0,30.44,ENE,65,3.0,6.0,76,0.00,,,0.00,weatherlink.com 1.10,2013-12-04 21:30:00,
2013-12-04 14:45:00,6.2,0.0,30.45,North,8,4.0,11.0,76,0.00,,,0.00,weatherlink.com 1.10,2013-12-04 21:45:00,
2013-12-04 15:00:00,6.4,-1.0,30.45,NNE,32,8.0,10.0,73,0.00,,,0.00,weatherlink.com 1.10,2013-12-04 22:00:00,
2013-12-04 15:15:00,6.2,-1.0,30.46,NE,39,6.0,13.0,71,0.00,,,0.00,weatherlink.com 1.10,2013-12-04 22:15:00,
2013-12-04 15:30:00,5.6,-2.0,30.46,NNE,18,4.0,12.0,71,0.00,,,0.00,weatherlink.com 1.10,2013-12-04 22:30:00,
2013-12-04 15:45:00,4.3,-3.0,30.47,NNE,28,8.0,12.0,72,0.00,,,0.00,weatherlink.com 1.10,2013-12-04 22:45:00,
2013-12-04 16:01:00,3.5,-3.0,30.47,NNE,27,8.0,11.0,73,0.00,,,0.00,weatherlink.com 1.10,2013-12-04 23:01:00,
2013-12-04 16:16:00,2.9,-4.0,30.48,NNE,27,3.0,9.0,74,0.00,,,0.00,weatherlink.com 1.10,2013-12-04 23:16:00,
2013-12-04 16:31:00,2.4,-4.0,30.48,NNE,18,1.0,3.0,75,0.00,,,0.00,weatherlink.com 1.10,2013-12-04 23:31:00,
2013-12-04 16:46:00,1.8,-4.0,30.49,NE,53,2.0,7.0,75,0.00,,,0.00,weatherlink.com 1.10,2013-12-04 23:46:00,
2013-12-04 17:01:00,1.2,-5.0,30.49,ENE,58,0.0,3.0,76,0.00,,,0.00,weatherlink.com 1.10,2013-12-05 00:01:00,
2013-12-04 17:16:00,0.6,-5.0,30.50,NE,53,0.0,3.0,77,0.00,,,0.00,weatherlink.com 1.10,2013-12-05 00:16:00,
2013-12-04 17:31:00,0.1,-5.0,30.50,East,94,0.0,1.0,79,0.00,,,0.00,weatherlink.com 1.10,2013-12-05 00:31:00,
2013-12-04 17:46:00,-0.7,-6.0,30.50,SE,127,0.0,1.0,78,0.00,,,0.00,weatherlink.com 1.10,2013-12-05 00:46:00,
2013-12-04 18:01:00,-1.3,-6.0,30.50,SE,133,0.0,0.0,79,0.00,,,0.00,weatherlink.com 1.10,2013-12-05 01:01:00,
2013-12-04 18:16:00,-1.3,-6.0,30.50,NNW,343,0.0,3.0,79,0.00,,,0.00,weatherlink.com 1.10,2013-12-05 01:16:00,
2013-12-04 18:31:00,-1.1,-6.0,30.50,NE,41,0.0,1.0,79,0.00,,,0.00,weatherlink.com 1.10,2013-12-05 01:31:00,
2013-12-04 18:46:00,-2.2,-8.0,30.51,SSW,202,1.0,1.0,77,0.00,,,0.00,weatherlink.com 1.10,2013-12-05 01:46:00,
2013-12-04 19:01:00,-3.8,-9.0,30.51,South,174,2.0,2.0,80,0.00,,,0.00,weatherlink.com 1.10,2013-12-05 02:01:00,
2013-12-04 19:16:00,-4.0,-9.0,30.51,South,191,0.0,2.0,78,0.00,,,0.00,weatherlink.com 1.10,2013-12-05 02:16:00,
2013-12-04 19:32:00,-4.9,-10.0,30.52,NNW,333,1.0,1.0,80,0.00,,,0.00,weatherlink.com 1.10,2013-12-05 02:32:00,
2013-12-04 19:47:00,-5.7,-10.0,30.52,SE,141,0.0,1.0,80,0.00,,,0.00,weatherlink.com 1.10,2013-12-05 02:47:00,
2013-12-04 20:02:00,-5.8,-10.0,30.52,SSW,209,1.0,1.0,81,0.00,,,0.00,weatherlink.com 1.10,2013-12-05 03:02:00,
2013-12-04 20:17:00,-5.5,-10.0,30.52,South,179,1.0,2.0,81,0.00,,,0.00,weatherlink.com 1.10,2013-12-05 03:17:00,
2013-12-04 20:32:00,-5.5,-10.0,30.52,SSW,198,0.0,1.0,82,0.00,,,0.00,weatherlink.com 1.10,2013-12-05 03:32:00,
2013-12-04 20:47:00,-4.8,-9.0,30.53,South,176,0.0,1.0,83,0.00,,,0.00,weatherlink.com 1.10,2013-12-05 03:47:00,
2013-12-04 21:02:00,-4.3,-8.0,30.53,South,176,0.0,0.0,84,0.00,,,0.00,weatherlink.com 1.10,2013-12-05 04:02:00,
2013-12-04 21:17:00,-4.1,-8.0,30.53,South,176,0.0,0.0,84,0.00,,,0.00,weatherlink.com 1.10,2013-12-05 04:17:00,
2013-12-04 21:32:00,-3.8,-7.0,30.53,South,176,0.0,0.0,85,0.00,,,0.00,weatherlink.com 1.10,2013-12-05 04:32:00,
2013-12-04 21:47:00,-3.6,-7.0,30.53,South,176,0.0,0.0,85,0.00,,,0.00,weatherlink.com 1.10,2013-12-05 04:47:00,
2013-12-04 22:02:00,-3.2,-6.0,30.53,South,172,0.0,0.0,86,0.00,,,0.00,weatherlink.com 1.10,2013-12-05 05:02:00,
2013-12-04 22:17:00,-3.9,-7.0,30.53,SE,146,0.0,0.0,85,0.00,,,0.00,weatherlink.com 1.10,2013-12-05 05:17:00,
2013-12-04 22:33:00,-4.1,-7.0,30.53,SE,146,0.0,0.0,86,0.00,,,0.00,weatherlink.com 1.10,2013-12-05 05:33:00,
2013-12-04 22:48:00,-3.8,-7.0,30.53,SE,146,0.0,0.0,86,0.00,,,0.00,weatherlink.com 1.10,2013-12-05 05:48:00,
2013-12-04 23:03:00,-3.5,-7.0,30.54,WSW,237,0.0,0.0,86,0.00,,,0.00,weatherlink.com 1.10,2013-12-05 06:03:00,
2013-12-04 23:18:00,-2.9,-6.0,30.54,West,265,1.0,1.0,86,0.00,,,0.00,weatherlink.com 1.10,2013-12-05 06:18:00,
2013-12-04 23:33:00,-2.4,-6.0,30.54,WSW,255,1.0,3.0,85,0.00,,,0.00,weatherlink.com 1.10,2013-12-05 06:33:00,
2013-12-04 23:48:00,-2.3,-6.0,30.54,West,273,0.0,2.0,85,0.00,,,0.00,weatherlink.com 1.10,2013-12-05 06:48:00,